| time (UTC) | temp F | wind direction | speed MPH | gust MPH | rain 1hr in | rain 24hr in | rain mn in | humidity % | barometer mb |
| 20260505204303 | 82 | 252 | 1.0 | 5.0 | 0.00 | 0.00 | 0.00 | 39 | 1003.2 |
| 20260505203756 | 83 | 74 | 2.0 | 9.0 | 0.00 | 0.00 | 0.00 | 37 | 1003.2 |
| 20260505203310 | 83 | 219 | 4.0 | 11.0 | 0.00 | 0.00 | 0.00 | 37 | 1003.2 |
| 20260505202828 | 83 | 243 | 4.0 | 11.0 | 0.00 | 0.00 | 0.00 | 32 | 1003.2 |
| 20260505202305 | 84 | 217 | 4.0 | 10.0 | 0.00 | 0.00 | 0.00 | 30 | 1003.2 |
| 20260505201803 | 83 | 11 | 3.0 | 9.0 | 0.00 | 0.00 | 0.00 | 30 | 1003.2 |
| 20260505201313 | 83 | 223 | 3.0 | 12.0 | 0.00 | 0.00 | 0.00 | 30 | 1003.2 |
| 20260505200804 | 84 | 242 | 5.0 | 12.0 | 0.00 | 0.00 | 0.00 | 29 | 1003.2 |
| 20260505200313 | 84 | 204 | 3.0 | 10.0 | 0.00 | 0.00 | 0.00 | 29 | 1003.2 |
| 20260505195751 | 84 | 233 | 3.0 | 9.0 | 0.00 | 0.00 | 0.00 | 29 | 1003.3 |
| 20260505195315 | 85 | 202 | 5.0 | 15.0 | 0.00 | 0.00 | 0.00 | 28 | 1003.3 |
| 20260505194834 | 85 | 219 | 6.0 | 15.0 | 0.00 | 0.00 | 0.00 | 28 | 1003.3 |
| 20260505194308 | 85 | 322 | 5.0 | 12.0 | 0.00 | 0.00 | 0.00 | 28 | 1003.3 |
| 20260505193801 | 85 | 249 | 6.0 | 13.0 | 0.00 | 0.00 | 0.00 | 29 | 1003.4 |
| 20260505193256 | 85 | 205 | 6.0 | 13.0 | 0.00 | 0.00 | 0.00 | 28 | 1003.4 |
| 20260505192809 | 85 | 220 | 4.0 | 12.0 | 0.00 | 0.00 | 0.00 | 30 | 1003.4 |
| 20260505192332 | 84 | 264 | 5.0 | 12.0 | 0.00 | 0.00 | 0.00 | 28 | 1003.7 |
| 20260505191826 | 84 | 229 | 4.0 | 13.0 | 0.00 | 0.00 | 0.00 | 29 | 1003.7 |
| 20260505191259 | 84 | 209 | 8.0 | 13.0 | 0.00 | 0.00 | 0.00 | 28 | 1003.7 |
| 20260505190820 | 84 | 200 | 6.0 | 14.0 | 0.00 | 0.00 | 0.00 | 33 | 1003.8 |
| 20260505190308 | 83 | 140 | 2.0 | 6.0 | 0.00 | 0.00 | 0.00 | 39 | 1003.8 |
| 20260505185803 | 83 | 242 | 2.0 | 9.0 | 0.00 | 0.00 | 0.00 | 39 | 1003.8 |
| 20260505185256 | 83 | 200 | 3.0 | 9.0 | 0.00 | 0.00 | 0.00 | 39 | 1003.7 |
| 20260505184805 | 82 | 171 | 3.0 | 7.0 | 0.00 | 0.00 | 0.00 | 39 | 1003.7 |
| 20260505184256 | 82 | 12 | 2.0 | 7.0 | 0.00 | 0.00 | 0.00 | 41 | 1003.7 |
| 20260505183813 | 81 | 52 | 3.0 | 7.0 | 0.00 | 0.00 | 0.00 | 43 | 1004.2 |
| 20260505183311 | 81 | 154 | 2.0 | 8.0 | 0.00 | 0.00 | 0.00 | 43 | 1004.2 |
| 20260505182807 | 80 | 225 | 3.0 | 15.0 | 0.00 | 0.00 | 0.00 | 42 | 1004.2 |
| 20260505182306 | 80 | 230 | 3.0 | 8.0 | 0.00 | 0.00 | 0.00 | 43 | 1004.3 |
| 20260505181824 | 80 | 302 | 3.0 | 7.0 | 0.00 | 0.00 | 0.00 | 43 | 1004.3 |
| 20260505181254 | 80 | 260 | 2.0 | 7.0 | 0.00 | 0.00 | 0.00 | 42 | 1004.3 |
| 20260505180759 | 80 | 196 | 2.0 | 9.0 | 0.00 | 0.00 | 0.00 | 42 | 1004.6 |
| 20260505180307 | 80 | 233 | 3.0 | 9.0 | 0.00 | 0.00 | 0.00 | 41 | 1004.6 |
| 20260505175820 | 81 | 211 | 2.0 | 11.0 | 0.00 | 0.00 | 0.00 | 41 | 1004.6 |
| 20260505175316 | 81 | 106 | 4.0 | 10.0 | 0.00 | 0.00 | 0.00 | 41 | 1004.7 |
| 20260505174752 | 81 | 239 | 2.0 | 6.0 | 0.00 | 0.00 | 0.00 | 41 | 1004.7 |
| 20260505174313 | 81 | 221 | 2.0 | 11.0 | 0.00 | 0.00 | 0.00 | 42 | 1004.7 |
| 20260505173813 | 80 | 232 | 5.0 | 11.0 | 0.00 | 0.00 | 0.00 | 41 | 1004.8 |
| 20260505173321 | 80 | 287 | 3.0 | 9.0 | 0.00 | 0.00 | 0.00 | 42 | 1004.8 |
| 20260505172832 | 80 | 337 | 3.0 | 9.0 | 0.00 | 0.00 | 0.00 | 45 | 1004.8 |
| 20260505172305 | 79 | 164 | 3.0 | 8.0 | 0.00 | 0.00 | 0.00 | 44 | 1004.9 |
| 20260505171801 | 79 | 5 | 1.0 | 6.0 | 0.00 | 0.00 | 0.00 | 44 | 1004.9 |
| 20260505171322 | 79 | 241 | 2.0 | 5.0 | 0.00 | 0.00 | 0.00 | 46 | 1004.9 |
| 20260505170811 | 79 | 283 | 3.0 | 8.0 | 0.00 | 0.00 | 0.00 | 44 | 1005.2 |
| 20260505170258 | 78 | 113 | 3.0 | 8.0 | 0.00 | 0.00 | 0.00 | 46 | 1005.2 |
| 20260505165807 | 78 | 248 | 2.0 | 8.0 | 0.00 | 0.00 | 0.00 | 46 | 1005.2 |
| 20260505165309 | 78 | 124 | 2.0 | 7.0 | 0.00 | 0.00 | 0.00 | 45 | 1005.4 |
| 20260505164807 | 78 | 10 | 3.0 | 7.0 | 0.00 | 0.00 | 0.00 | 46 | 1005.4 |
| 20260505164309 | 78 | 144 | 3.0 | 6.0 | 0.00 | 0.00 | 0.00 | 45 | 1005.4 |
| 20260505163801 | 78 | 248 | 3.0 | 9.0 | 0.00 | 0.00 | 0.00 | 45 | 1005.7 |
| 20260505163303 | 78 | 121 | 3.0 | 9.0 | 0.00 | 0.00 | 0.00 | 45 | 1005.7 |
| 20260505162813 | 78 | 199 | 3.0 | 7.0 | 0.00 | 0.00 | 0.00 | 45 | 1005.7 |
| 20260505162329 | 78 | 302 | 2.0 | 7.0 | 0.00 | 0.00 | 0.00 | 46 | 1005.8 |
| 20260505161819 | 78 | 135 | 2.0 | 10.0 | 0.00 | 0.00 | 0.00 | 46 | 1005.8 |
| 20260505161313 | 77 | 248 | 4.0 | 10.0 | 0.00 | 0.00 | 0.00 | 45 | 1005.8 |
| 20260505160809 | 77 | 259 | 3.0 | 9.0 | 0.00 | 0.00 | 0.00 | 47 | 1006.2 |
| 20260505160256 | 76 | 238 | 3.0 | 9.0 | 0.00 | 0.00 | 0.00 | 48 | 1006.2 |
| 20260505153259 | 73 | 313 | 2.0 | 5.0 | 0.00 | 0.00 | 0.00 | 52 | 1006.7 |
| 20260505152812 | 73 | 267 | 2.0 | 4.0 | 0.00 | 0.00 | 0.00 | 53 | 1006.7 |
| 20260505152305 | 72 | 262 | 2.0 | 4.0 | 0.00 | 0.00 | 0.00 | 55 | 1006.9 |
| 20260505151804 | 72 | 243 | 0.0 | 4.0 | 0.00 | 0.00 | 0.00 | 55 | 1006.9 |
| 20260505151305 | 71 | 235 | 1.0 | 4.0 | 0.00 | 0.00 | 0.00 | 57 | 1006.9 |
| 20260505150800 | 71 | 282 | 1.0 | 4.0 | 0.00 | 0.00 | 0.00 | 58 | 1007.3 |
| 20260505150310 | 70 | 250 | 2.0 | 4.0 | 0.00 | 0.00 | 0.00 | 59 | 1007.3 |
| 20260505140305 | 65 | 289 | 1.0 | 6.0 | 0.00 | 0.00 | 0.00 | 66 | 1007.9 |
| 20260505130304 | 58 | 360 | 1.0 | 5.0 | 0.00 | 0.00 | 0.00 | 77 | 1008.4 |
| 20260505124755 | 57 | 360 | 2.0 | 5.0 | 0.00 | 0.00 | 0.00 | 80 | 1008.4 |
| 20260505124305 | 56 | 360 | 2.0 | 4.0 | 0.00 | 0.00 | 0.00 | 81 | 1008.4 |
| 20260505123805 | 56 | 360 | 1.0 | 6.0 | 0.00 | 0.00 | 0.00 | 82 | 1008.4 |
| 20260505123322 | 55 | 360 | 2.0 | 6.0 | 0.00 | 0.00 | 0.00 | 83 | 1008.4 |
| 20260505122758 | 55 | 360 | 2.0 | 4.0 | 0.00 | 0.00 | 0.00 | 84 | 1008.4 |
| 20260505122308 | 54 | 360 | 1.0 | 4.0 | 0.00 | 0.00 | 0.00 | 85 | 1008.4 |
| 20260505121803 | 54 | 360 | 2.0 | 4.0 | 0.00 | 0.00 | 0.00 | 85 | 1008.4 |
| 20260505121301 | 53 | 360 | 0.0 | 4.0 | 0.00 | 0.00 | 0.00 | 85 | 1008.4 |
| 20260505120758 | 53 | 240 | 1.0 | 4.0 | 0.00 | 0.00 | 0.00 | 86 | 1008.6 |
| 20260505120308 | 53 | 183 | 1.0 | 3.0 | 0.00 | 0.00 | 0.00 | 86 | 1008.6 |
| 20260505115804 | 52 | 182 | 0.0 | 3.0 | 0.00 | 0.00 | 0.00 | 86 | 1008.6 |
| 20260505115306 | 52 | 295 | 1.0 | 3.0 | 0.00 | 0.00 | 0.00 | 86 | 1008.9 |
| 20260505114801 | 52 | 55 | 1.0 | 3.0 | 0.00 | 0.00 | 0.00 | 86 | 1008.9 |
| 20260505114304 | 52 | 63 | 0.0 | 3.0 | 0.00 | 0.00 | 0.00 | 86 | 1008.9 |
| 20260505113801 | 52 | 250 | 1.0 | 3.0 | 0.00 | 0.00 | 0.00 | 87 | 1008.6 |
| 20260505113300 | 51 | 250 | 2.0 | 4.0 | 0.00 | 0.00 | 0.00 | 87 | 1008.6 |
| 20260505112755 | 51 | 299 | 1.0 | 3.0 | 0.00 | 0.00 | 0.00 | 87 | 1008.6 |
| 20260505112330 | 51 | 360 | 1.0 | 5.0 | 0.00 | 0.00 | 0.00 | 88 | 1008.4 |
| 20260505111806 | 50 | 344 | 1.0 | 2.0 | 0.00 | 0.00 | 0.00 | 88 | 1008.4 |
| 20260505111320 | 50 | 255 | 0.0 | 3.0 | 0.00 | 0.00 | 0.00 | 88 | 1008.4 |
| 20260505110753 | 50 | 258 | 0.0 | 4.0 | 0.00 | 0.00 | 0.00 | 88 | 1008.4 |
| 20260505110304 | 50 | 254 | 1.0 | 4.0 | 0.00 | 0.00 | 0.00 | 88 | 1008.4 |
| 20260505101809 | 49 | 355 | 0.0 | 1.0 | 0.00 | 0.00 | 0.00 | 86 | 1007.9 |
| 20260505101306 | 49 | 355 | 0.0 | 1.0 | 0.00 | 0.00 | 0.00 | 86 | 1007.9 |
| 20260505100819 | 49 | 355 | 0.0 | 2.0 | 0.00 | 0.00 | 0.00 | 86 | 1007.8 |
| 20260505100307 | 49 | 355 | 0.0 | 2.0 | 0.00 | 0.00 | 0.00 | 86 | 1007.8 |
| 20260505095800 | 49 | 313 | 0.0 | 1.0 | 0.00 | 0.00 | 0.00 | 86 | 1007.8 |
| 20260505095321 | 49 | 313 | 0.0 | 0.0 | 0.00 | 0.00 | 0.00 | 86 | 1007.8 |
| 20260505094756 | 49 | 313 | 0.0 | 0.0 | 0.00 | 0.00 | 0.00 | 85 | 1007.8 |
| 20260505094252 | 49 | 313 | 0.0 | 0.0 | 0.00 | 0.00 | 0.00 | 85 | 1007.8 |
| 20260505093808 | 49 | 313 | 0.0 | 0.0 | 0.00 | 0.00 | 0.00 | 85 | 1007.8 |
| 20260505093306 | 49 | 313 | 0.0 | 1.0 | 0.00 | 0.00 | 0.00 | 85 | 1007.8 |
| 20260505092822 | 49 | 313 | 0.0 | 1.0 | 0.00 | 0.00 | 0.00 | 85 | 1007.8 |
| 20260505092259 | 49 | 313 | 0.0 | 0.0 | 0.00 | 0.00 | 0.00 | 85 | 1007.9 |
| 20260505091751 | 49 | 313 | 0.0 | 0.0 | 0.00 | 0.00 | 0.00 | 85 | 1007.9 |
| 20260505091306 | 49 | 313 | 0.0 | 0.0 | 0.00 | 0.00 | 0.00 | 85 | 1007.9 |
| 20260505090802 | 49 | 313 | 0.0 | 1.0 | 0.00 | 0.00 | 0.00 | 85 | 1008.0 |
| 20260505090254 | 49 | 313 | 0.0 | 1.0 | 0.00 | 0.00 | 0.00 | 85 | 1008.0 |
| 20260505085804 | 49 | 313 | 0.0 | 3.0 | 0.00 | 0.00 | 0.00 | 85 | 1008.0 |
| 20260505085258 | 49 | 313 | 0.0 | 3.0 | 0.00 | 0.00 | 0.00 | 85 | 1008.1 |
| 20260505084756 | 49 | 309 | 0.0 | 2.0 | 0.00 | 0.00 | 0.00 | 85 | 1008.1 |
| 20260505084256 | 49 | 309 | 0.0 | 0.0 | 0.00 | 0.00 | 0.00 | 85 | 1008.1 |
| 20260505083832 | 49 | 309 | 0.0 | 0.0 | 0.00 | 0.00 | 0.00 | 84 | 1008.1 |
| 20260505083250 | 49 | 309 | 0.0 | 0.0 | 0.00 | 0.00 | 0.00 | 84 | 1008.1 |
| 20260505082810 | 49 | 309 | 0.0 | 0.0 | 0.00 | 0.00 | 0.00 | 84 | 1008.1 |
| 20260505082305 | 49 | 309 | 0.0 | 0.0 | 0.00 | 0.00 | 0.00 | 84 | 1008.0 |
| 20260505081803 | 49 | 309 | 0.0 | 0.0 | 0.00 | 0.00 | 0.00 | 84 | 1008.0 |
| 20260505081300 | 49 | 309 | 0.0 | 0.0 | 0.00 | 0.00 | 0.00 | 84 | 1008.0 |
| 20260505080754 | 49 | 309 | 0.0 | 0.0 | 0.00 | 0.00 | 0.00 | 83 | 1008.2 |
| 20260505080327 | 49 | 309 | 0.0 | 0.0 | 0.00 | 0.00 | 0.00 | 83 | 1008.2 |
| 20260505075826 | 49 | 309 | 0.0 | 0.0 | 0.00 | 0.00 | 0.00 | 83 | 1008.2 |
| 20260505075259 | 49 | 309 | 0.0 | 0.0 | 0.00 | 0.00 | 0.00 | 83 | 1008.2 |
| 20260505074757 | 50 | 309 | 0.0 | 0.0 | 0.00 | 0.00 | 0.00 | 83 | 1008.2 |
| 20260505074257 | 50 | 309 | 0.0 | 0.0 | 0.00 | 0.00 | 0.00 | 83 | 1008.2 |
| 20260505073824 | 50 | 309 | 0.0 | 0.0 | 0.00 | 0.00 | 0.00 | 83 | 1008.0 |
| 20260505073321 | 50 | 309 | 0.0 | 1.0 | 0.00 | 0.00 | 0.00 | 83 | 1008.0 |
| 20260505072802 | 50 | 309 | 0.0 | 1.0 | 0.00 | 0.00 | 0.00 | 83 | 1008.0 |
| 20260505072301 | 50 | 309 | 0.0 | 1.0 | 0.00 | 0.00 | 0.00 | 82 | 1008.2 |
| 20260505071759 | 50 | 309 | 0.0 | 2.0 | 0.00 | 0.00 | 0.00 | 82 | 1008.2 |
| 20260505071333 | 50 | 309 | 1.0 | 2.0 | 0.00 | 0.00 | 0.00 | 81 | 1008.2 |
| 20260505070803 | 50 | 309 | 0.0 | 0.0 | 0.00 | 0.00 | 0.00 | 80 | 1008.1 |
| 20260505070255 | 50 | 309 | 0.0 | 0.0 | 0.00 | 0.00 | 0.00 | 80 | 1008.1 |
| 20260505065831 | 50 | 309 | 0.0 | 0.0 | 0.00 | 0.00 | 0.00 | 79 | 1008.1 |
| 20260505065322 | 50 | 309 | 0.0 | 0.0 | 0.00 | 0.00 | 0.00 | 78 | 1008.3 |
| 20260505064801 | 50 | 309 | 0.0 | 0.0 | 0.00 | 0.00 | 0.00 | 78 | 1008.3 |
| 20260505064319 | 51 | 309 | 0.0 | 0.0 | 0.00 | 0.00 | 0.00 | 78 | 1008.3 |
| 20260505063754 | 51 | 309 | 0.0 | 0.0 | 0.00 | 0.00 | 0.00 | 77 | 1008.4 |
| 20260505063312 | 51 | 309 | 0.0 | 0.0 | 0.00 | 0.00 | 0.00 | 77 | 1008.4 |
| 20260505062825 | 51 | 309 | 0.0 | 0.0 | 0.00 | 0.00 | 0.00 | 76 | 1008.4 |
| 20260505062259 | 51 | 309 | 0.0 | 0.0 | 0.00 | 0.00 | 0.00 | 77 | 1008.4 |
| 20260505061754 | 51 | 309 | 0.0 | 0.0 | 0.00 | 0.00 | 0.00 | 76 | 1008.4 |
| 20260505061311 | 52 | 309 | 0.0 | 0.0 | 0.00 | 0.00 | 0.00 | 75 | 1008.4 |
| 20260505060808 | 52 | 309 | 0.0 | 0.0 | 0.00 | 0.00 | 0.00 | 75 | 1008.6 |
| 20260505060317 | 52 | 309 | 0.0 | 0.0 | 0.00 | 0.00 | 0.00 | 74 | 1008.6 |
| 20260505055756 | 52 | 309 | 0.0 | 0.0 | 0.00 | 0.00 | 0.00 | 74 | 1008.6 |
| 20260505055304 | 53 | 309 | 0.0 | 0.0 | 0.00 | 0.00 | 0.00 | 73 | 1008.7 |
| 20260505054823 | 53 | 309 | 0.0 | 0.0 | 0.00 | 0.00 | 0.00 | 73 | 1008.7 |
| 20260505054258 | 53 | 309 | 0.0 | 0.0 | 0.00 | 0.00 | 0.00 | 73 | 1008.7 |
| 20260505053757 | 53 | 309 | 0.0 | 0.0 | 0.00 | 0.00 | 0.00 | 72 | 1008.7 |
| 20260505053312 | 54 | 309 | 0.0 | 0.0 | 0.00 | 0.00 | 0.00 | 71 | 1008.7 |
| 20260505052810 | 54 | 309 | 0.0 | 0.0 | 0.00 | 0.00 | 0.00 | 71 | 1008.7 |
| 20260505052312 | 54 | 309 | 0.0 | 0.0 | 0.00 | 0.00 | 0.00 | 70 | 1008.7 |
| 20260505051803 | 54 | 309 | 0.0 | 1.0 | 0.00 | 0.00 | 0.00 | 70 | 1008.7 |
| 20260505051300 | 54 | 309 | 0.0 | 1.0 | 0.00 | 0.00 | 0.00 | 69 | 1008.7 |
| 20260505050817 | 55 | 309 | 0.0 | 0.0 | 0.00 | 0.00 | 0.00 | 69 | 1008.7 |
| 20260505050308 | 55 | 309 | 0.0 | 0.0 | 0.00 | 0.00 | 0.00 | 68 | 1008.7 |
| 20260505041753 | 56 | 265 | 0.0 | 1.0 | 0.00 | 0.00 | 0.00 | 65 | 1008.7 |
| 20260505041311 | 56 | 265 | 0.0 | 1.0 | 0.00 | 0.00 | 0.00 | 65 | 1008.7 |
| 20260505040809 | 57 | 265 | 0.0 | 2.0 | 0.00 | 0.00 | 0.00 | 64 | 1008.5 |
| 20260505040309 | 57 | 265 | 0.0 | 2.0 | 0.00 | 0.00 | 0.00 | 64 | 1008.5 |
| 20260505035821 | 57 | 257 | 0.0 | 2.0 | 0.00 | 0.00 | 0.00 | 63 | 1008.5 |
| 20260505035253 | 57 | 257 | 0.0 | 2.0 | 0.00 | 0.00 | 0.00 | 63 | 1008.4 |
| 20260505034808 | 57 | 252 | 0.0 | 1.0 | 0.00 | 0.00 | 0.00 | 62 | 1008.4 |
| 20260505034321 | 58 | 252 | 0.0 | 1.0 | 0.00 | 0.00 | 0.00 | 62 | 1008.4 |
| 20260505033753 | 58 | 252 | 0.0 | 2.0 | 0.00 | 0.00 | 0.00 | 61 | 1008.3 |
| 20260505033308 | 58 | 252 | 0.0 | 2.0 | 0.00 | 0.00 | 0.00 | 61 | 1008.3 |
| 20260505032805 | 58 | 246 | 0.0 | 1.0 | 0.00 | 0.00 | 0.00 | 61 | 1008.3 |
| 20260505032258 | 58 | 245 | 0.0 | 3.0 | 0.00 | 0.00 | 0.00 | 60 | 1008.2 |
| 20260505031755 | 59 | 360 | 2.0 | 3.0 | 0.00 | 0.00 | 0.00 | 60 | 1008.2 |
| 20260505031307 | 59 | 360 | 0.0 | 2.0 | 0.00 | 0.00 | 0.00 | 59 | 1008.2 |
| 20260505030758 | 59 | 360 | 1.0 | 2.0 | 0.00 | 0.00 | 0.00 | 59 | 1008.1 |
| 20260505030255 | 59 | 360 | 0.0 | 3.0 | 0.00 | 0.00 | 0.00 | 59 | 1008.1 |
| 20260505025813 | 59 | 360 | 1.0 | 3.0 | 0.00 | 0.00 | 0.00 | 58 | 1008.0 |
| 20260505025309 | 59 | 360 | 1.0 | 4.0 | 0.00 | 0.00 | 0.00 | 58 | 1008.0 |
| 20260505024807 | 60 | 360 | 0.0 | 6.0 | 0.00 | 0.00 | 0.00 | 58 | 1008.0 |
| 20260505024303 | 60 | 360 | 0.0 | 4.0 | 0.00 | 0.00 | 0.00 | 57 | 1008.0 |
| 20260505023800 | 60 | 360 | 1.0 | 4.0 | 0.00 | 0.00 | 0.00 | 57 | 1008.0 |
| 20260505023258 | 60 | 360 | 0.0 | 2.0 | 0.00 | 0.00 | 0.00 | 56 | 1008.0 |
| 20260505022751 | 60 | 360 | 0.0 | 3.0 | 0.00 | 0.00 | 0.00 | 56 | 1007.9 |
| 20260505022311 | 61 | 360 | 0.0 | 3.0 | 0.00 | 0.00 | 0.00 | 56 | 1007.9 |
| 20260505021802 | 61 | 360 | 1.0 | 6.0 | 0.00 | 0.00 | 0.00 | 55 | 1007.9 |
| 20260505021312 | 61 | 360 | 1.0 | 4.0 | 0.00 | 0.00 | 0.00 | 55 | 1007.9 |
| 20260505020806 | 61 | 360 | 1.0 | 7.0 | 0.00 | 0.00 | 0.00 | 54 | 1007.9 |
| 20260505020258 | 61 | 360 | 2.0 | 7.0 | 0.00 | 0.00 | 0.00 | 54 | 1007.9 |
| 20260505015750 | 62 | 360 | 1.0 | 3.0 | 0.00 | 0.00 | 0.00 | 53 | 1007.8 |
| 20260505015311 | 62 | 360 | 1.0 | 4.0 | 0.00 | 0.00 | 0.00 | 53 | 1007.8 |
| 20260505014822 | 62 | 360 | 2.0 | 5.0 | 0.00 | 0.00 | 0.00 | 53 | 1007.8 |
| 20260505014301 | 62 | 360 | 1.0 | 5.0 | 0.00 | 0.00 | 0.00 | 52 | 1007.8 |
| 20260505013759 | 62 | 360 | 1.0 | 3.0 | 0.00 | 0.00 | 0.00 | 52 | 1007.7 |
| 20260505013255 | 63 | 360 | 0.0 | 3.0 | 0.00 | 0.00 | 0.00 | 51 | 1007.7 |
| 20260505012757 | 63 | 360 | 1.0 | 4.0 | 0.00 | 0.00 | 0.00 | 50 | 1007.7 |
| 20260505012308 | 63 | 360 | 1.0 | 4.0 | 0.00 | 0.00 | 0.00 | 50 | 1007.4 |
| 20260505011803 | 63 | 360 | 1.0 | 3.0 | 0.00 | 0.00 | 0.00 | 50 | 1007.4 |
| 20260505011259 | 64 | 360 | 1.0 | 3.0 | 0.00 | 0.00 | 0.00 | 49 | 1007.4 |
| 20260505010816 | 64 | 360 | 1.0 | 4.0 | 0.00 | 0.00 | 0.00 | 49 | 1007.1 |
| 20260505010259 | 64 | 360 | 1.0 | 4.0 | 0.00 | 0.00 | 0.00 | 48 | 1007.1 |
| 20260505005813 | 65 | 360 | 0.0 | 5.0 | 0.00 | 0.00 | 0.00 | 47 | 1007.1 |
| 20260505005309 | 65 | 360 | 1.0 | 5.0 | 0.00 | 0.00 | 0.00 | 47 | 1006.8 |
| 20260505004803 | 65 | 360 | 2.0 | 4.0 | 0.00 | 0.00 | 0.00 | 46 | 1006.8 |
| 20260505004259 | 65 | 360 | 1.0 | 4.0 | 0.00 | 0.00 | 0.00 | 45 | 1006.8 |
| 20260505003802 | 66 | 360 | 1.0 | 5.0 | 0.00 | 0.00 | 0.00 | 44 | 1006.8 |
| 20260505003259 | 66 | 360 | 2.0 | 5.0 | 0.00 | 0.00 | 0.00 | 43 | 1006.8 |
| 20260505002752 | 66 | 360 | 1.0 | 6.0 | 0.00 | 0.00 | 0.00 | 43 | 1006.3 |
| 20260505002306 | 67 | 360 | 2.0 | 6.0 | 0.00 | 0.00 | 0.00 | 40 | 1006.3 |
| 20260505001806 | 67 | 360 | 1.0 | 2.0 | 0.00 | 0.00 | 0.00 | 39 | 1006.3 |
| 20260505001318 | 67 | 360 | 0.0 | 2.0 | 0.00 | 0.00 | 0.00 | 38 | 1006.3 |
| 20260505000808 | 67 | 360 | 1.0 | 2.0 | 0.00 | 0.00 | 0.00 | 36 | 1006.1 |
| 20260505000318 | 68 | 360 | 0.0 | 3.0 | 0.00 | 0.00 | 0.00 | 37 | 1006.1 |
| 20260504235758 | 68 | 360 | 1.0 | 3.0 | 0.00 | 0.00 | 0.00 | 36 | 1006.1 |
| 20260504235256 | 68 | 360 | 1.0 | 3.0 | 0.00 | 0.00 | 0.00 | 36 | 1005.8 |
| 20260504234808 | 68 | 360 | 0.0 | 2.0 | 0.00 | 0.00 | 0.00 | 36 | 1005.8 |
| 20260504234304 | 68 | 360 | 0.0 | 2.0 | 0.00 | 0.00 | 0.00 | 36 | 1005.8 |
| 20260504233759 | 69 | 360 | 0.0 | 2.0 | 0.00 | 0.00 | 0.00 | 36 | 1005.7 |
| 20260504233257 | 69 | 360 | 0.0 | 3.0 | 0.00 | 0.00 | 0.00 | 35 | 1005.7 |
| 20260504232808 | 69 | 360 | 0.0 | 1.0 | 0.00 | 0.00 | 0.00 | 35 | 1005.7 |
| 20260504232306 | 69 | 360 | 0.0 | 4.0 | 0.00 | 0.00 | 0.00 | 34 | 1005.4 |
| 20260504231800 | 70 | 360 | 0.0 | 4.0 | 0.00 | 0.00 | 0.00 | 34 | 1005.4 |
| 20260504231258 | 70 | 360 | 0.0 | 5.0 | 0.00 | 0.00 | 0.00 | 34 | 1005.4 |
| 20260504230811 | 70 | 360 | 2.0 | 5.0 | 0.00 | 0.00 | 0.00 | 33 | 1005.3 |
| 20260504230319 | 70 | 360 | 2.0 | 7.0 | 0.00 | 0.00 | 0.00 | 33 | 1005.3 |
| 20260504225800 | 70 | 360 | 2.0 | 7.0 | 0.00 | 0.00 | 0.00 | 33 | 1005.3 |
| 20260504225257 | 70 | 360 | 3.0 | 7.0 | 0.00 | 0.00 | 0.00 | 32 | 1005.2 |
| 20260504224811 | 70 | 360 | 4.0 | 9.0 | 0.00 | 0.00 | 0.00 | 32 | 1005.2 |
| 20260504224252 | 71 | 360 | 4.0 | 9.0 | 0.00 | 0.00 | 0.00 | 32 | 1004.9 |
| 20260504223807 | 71 | 360 | 1.0 | 6.0 | 0.00 | 0.00 | 0.00 | 33 | 1004.9 |
| 20260504223307 | 71 | 360 | 1.0 | 7.0 | 0.00 | 0.00 | 0.00 | 33 | 1004.9 |
| 20260504222802 | 71 | 360 | 1.0 | 8.0 | 0.00 | 0.00 | 0.00 | 33 | 1004.9 |
| 20260504222302 | 72 | 360 | 3.0 | 7.0 | 0.00 | 0.00 | 0.00 | 32 | 1005.0 |
| 20260504221758 | 72 | 360 | 4.0 | 8.0 | 0.00 | 0.00 | 0.00 | 32 | 1005.0 |
| 20260504221252 | 72 | 264 | 4.0 | 8.0 | 0.00 | 0.00 | 0.00 | 31 | 1005.2 |
| 20260504220802 | 72 | 227 | 2.0 | 7.0 | 0.00 | 0.00 | 0.00 | 32 | 1005.2 |
| 20260504220254 | 72 | 227 | 2.0 | 8.0 | 0.00 | 0.00 | 0.00 | 31 | 1005.2 |
| 20260504215808 | 72 | 360 | 4.0 | 8.0 | 0.00 | 0.00 | 0.00 | 30 | 1005.2 |
| 20260504215301 | 72 | 236 | 2.0 | 9.0 | 0.00 | 0.00 | 0.00 | 32 | 1005.2 |
| 20260504214755 | 73 | 229 | 4.0 | 10.0 | 0.00 | 0.00 | 0.00 | 31 | 1005.2 |
| 20260504214312 | 73 | 250 | 4.0 | 10.0 | 0.00 | 0.00 | 0.00 | 31 | 1005.2 |
| 20260504213806 | 73 | 217 | 4.0 | 7.0 | 0.00 | 0.00 | 0.00 | 31 | 1005.2 |
| 20260504213321 | 73 | 221 | 2.0 | 5.0 | 0.00 | 0.00 | 0.00 | 31 | 1005.2 |
| 20260504212758 | 73 | 211 | 2.0 | 6.0 | 0.00 | 0.00 | 0.00 | 30 | 1005.2 |
| 20260504212255 | 73 | 224 | 3.0 | 6.0 | 0.00 | 0.00 | 0.00 | 31 | 1005.2 |
| 20260504211817 | 73 | 225 | 1.0 | 9.0 | 0.00 | 0.00 | 0.00 | 31 | 1005.2 |
| 20260504211308 | 73 | 225 | 4.0 | 9.0 | 0.00 | 0.00 | 0.00 | 30 | 1005.2 |
| 20260504210806 | 73 | 268 | 2.0 | 7.0 | 0.00 | 0.00 | 0.00 | 32 | 1005.2 |
| 20260504210313 | 73 | 212 | 2.0 | 7.0 | 0.00 | 0.00 | 0.00 | 32 | 1005.2 |
| 20260504205827 | 73 | 200 | 5.0 | 9.0 | 0.00 | 0.00 | 0.00 | 30 | 1005.2 |
| 20260504205258 | 73 | 242 | 5.0 | 12.0 | 0.00 | 0.00 | 0.00 | 30 | 1005.3 |
| 20260504204757 | 73 | 360 | 3.0 | 8.0 | 0.00 | 0.00 | 0.00 | 31 | 1005.3 |